Dublin, Ireland

1:01 AM GMT on December 11, 2017 (GMT +0000)
Dublin International

Weather History for EIDW - September, 2013

Change the Weather History Date:

Wednesday, September 4, 2013

  Actual Average Record
Temperature  
Mean Temperature 62 °F -  
Max Temperature 73 °F 61 °F 73 °F (2004)
Min Temperature 52 °F 49 °F 44 °F (2000)
Degree Days  
Heating Degree Days 2    
Growing Degree Days 12 (Base 50)    
Moisture  
Dew Point 49 °F    
Average Humidity 66    
Maximum Humidity 88    
Minimum Humidity 30    
Precipitation  
Precipitation 0.00 in 0.09 in - ()
Sea Level Pressure  
Sea Level Pressure 30.05 in    
Wind  
Wind Speed 8 mph ()    
Max Wind Speed 18 mph    
Max Gust Speed -    
Visibility 6.9 miles    
Events      
Averages and records for this station are not official NWS values.
T = Trace of Precipitation, MM = Missing Value Source: Averaged Metar Reports

Daily Weather History Graph

Daily Weather History Graph

Search for Another Location

Airport or City:

Trip Planner

Search our weather history database for the weather conditions in past years. The results will help you decide how hot, cold, wet, or windy it might be!

Date:

Astronomy

Sep. 04, 2013 Rise Set
Actual Time 6:39 AM IST 8:07 PM IST
Civil Twilight 6:03 AM IST 8:43 PM IST
Nautical Twilight 5:18 AM IST 9:27 PM IST
Astronomical Twilight 4:29 AM IST 10:16 PM IST
Moon 5:36 AM IST (9/4) 7:15 PM IST (9/4)
Length of Visible Light 14h 40m
Length of Day
13h 27m
Waning Crescent, 1% of the Moon is Illuminated
Sep 4
Waning Crescent
Sep 5
New
Sep 12
First Quarter
Sep 19
Full
Sep 27
Last Quarter

Hourly Weather History & Observations

Time (IST) Temp. Dew Point Humidity Pressure Visibility Wind Dir Wind Speed Gust Speed Precip Events Conditions
12:00 AM 57.2 °F 50.0 °F 77% 30.21 in 6.2 mi WSW 5.8 mph - N/A   Partly Cloudy
12:30 AM 57.2 °F 50.0 °F 77% 30.18 in 6.2 mi SW 4.6 mph - N/A   Partly Cloudy
1:00 AM 54 °F 50 °F 81% 30.20 in 19 mi WSW 4.5 mph - -   Scattered Clouds
1:00 AM 53.6 °F 50.0 °F 88% 30.18 in 6.2 mi WSW 3.5 mph - N/A   Partly Cloudy
1:30 AM 53.6 °F 50.0 °F 88% 30.18 in 6.2 mi SSW 5.8 mph - N/A   Partly Cloudy
2:00 AM 55.4 °F 50.0 °F 82% 30.18 in 6.2 mi SW 8.1 mph - N/A   Partly Cloudy
2:30 AM 55.4 °F 50.0 °F 82% 30.18 in 6.2 mi WSW 10.4 mph - N/A   Partly Cloudy
3:00 AM 53.6 °F 48.2 °F 82% 30.15 in 6.2 mi SW 6.9 mph - N/A   Partly Cloudy
3:30 AM 53.6 °F 48.2 °F 82% 30.15 in 6.2 mi WSW 4.6 mph - N/A   Partly Cloudy
4:00 AM 53.6 °F 48.2 °F 82% 30.15 in 6.2 mi WSW 8.1 mph - N/A   Partly Cloudy
4:30 AM 53.6 °F 48.2 °F 82% 30.12 in 6.2 mi WSW 11.5 mph - N/A   Partly Cloudy
5:00 AM 53.6 °F 50.0 °F 88% 30.12 in 6.2 mi WSW 12.7 mph - N/A   Partly Cloudy
5:30 AM 53.6 °F 50.0 °F 88% 30.12 in 6.2 mi WSW 10.4 mph - N/A   Partly Cloudy
6:00 AM 53.6 °F 50.0 °F 88% 30.12 in 6.2 mi WSW 11.5 mph - N/A   Partly Cloudy
6:30 AM 53.6 °F 50.0 °F 88% 30.12 in 6.2 mi WSW 12.7 mph - N/A   Mostly Cloudy
7:00 AM 54 °F 50 °F 82% 30.14 in 19 mi WSW 13.4 mph - -   Scattered Clouds
7:00 AM 53.6 °F 50.0 °F 88% 30.12 in 6.2 mi WSW 12.7 mph - N/A   Mostly Cloudy
7:30 AM 53.6 °F 50.0 °F 88% 30.12 in 6.2 mi WSW 10.4 mph - N/A   Mostly Cloudy
8:00 AM 53.6 °F 50.0 °F 88% 30.09 in 6.2 mi WSW 4.6 mph - N/A   Mostly Cloudy
8:30 AM 55.4 °F 50.0 °F 82% 30.09 in 6.2 mi Variable 3.5 mph - N/A   Mostly Cloudy
9:00 AM 55.4 °F 50.0 °F 82% 30.09 in - ESE 6.9 mph - N/A   Clear
9:30 AM 57.2 °F 51.8 °F 82% 30.09 in - ESE 8.1 mph - N/A   Clear
10:00 AM 57.2 °F 51.8 °F 82% 30.09 in - ESE 5.8 mph - N/A   Clear
10:30 AM 59.0 °F 53.6 °F 82% 30.06 in - ESE 4.6 mph - N/A   Clear
11:00 AM 60.8 °F 51.8 °F 72% 30.06 in 6.2 mi Variable 3.5 mph - N/A   Mostly Cloudy
11:30 AM 64.4 °F 51.8 °F 64% 30.06 in 6.2 mi SSE 4.6 mph - N/A   Partly Cloudy
12:00 PM 66.2 °F 53.6 °F 64% 30.06 in 6.2 mi SSE 5.8 mph - N/A   Partly Cloudy
12:30 PM 69.8 °F 50.0 °F 49% 30.04 in 6.2 mi SSE 4.6 mph - N/A   Partly Cloudy
1:00 PM 71 °F 47 °F 30% 30.03 in 31 mi SE 11.2 mph - -   Scattered Clouds
1:00 PM 71.6 °F 46.4 °F 41% 30.04 in 6.2 mi SE 10.4 mph - N/A   Partly Cloudy
1:30 PM 71.6 °F 46.4 °F 41% 30.04 in 6.2 mi South 9.2 mph - N/A   Partly Cloudy
2:00 PM 71.6 °F 44.6 °F 38% 30.01 in 6.2 mi South 9.2 mph - N/A   Partly Cloudy
2:30 PM 71.6 °F 48.2 °F 43% 30.01 in 6.2 mi SW 15.0 mph - N/A   Partly Cloudy
3:00 PM 71.6 °F 50.0 °F 46% 30.01 in 6.2 mi SW 17.3 mph - N/A   Partly Cloudy
3:30 PM 71.6 °F 50.0 °F 46% 29.98 in 6.2 mi SW 15.0 mph - N/A   Partly Cloudy
4:00 PM 71.6 °F 48.2 °F 43% 29.98 in 6.2 mi SSE 13.8 mph - N/A   Partly Cloudy
4:30 PM 71.6 °F 48.2 °F 43% 29.98 in 6.2 mi SW 13.8 mph - N/A   Partly Cloudy
5:00 PM 71.6 °F 46.4 °F 41% 29.95 in 6.2 mi SSW 13.8 mph - N/A   Partly Cloudy
5:30 PM 71.6 °F 46.4 °F 41% 29.95 in 6.2 mi SW 18.4 mph - N/A   Partly Cloudy
6:00 PM 71.6 °F 46.4 °F 41% 29.95 in - SW 17.3 mph - N/A   Clear
6:30 PM 69.8 °F 44.6 °F 40% 29.95 in - SW 13.8 mph - N/A   Clear
7:00 PM 68 °F 46 °F 33% 29.95 in 37 mi NE 4.5 mph - -   Scattered Clouds
7:00 PM 68.0 °F 46.4 °F 46% 29.95 in - SE 4.6 mph - N/A   Clear
7:30 PM 66.2 °F 48.2 °F 52% 29.95 in - SSW 10.4 mph - N/A   Clear
8:00 PM 66.2 °F 50.0 °F 56% 29.95 in - SSW 8.1 mph - N/A   Clear
8:30 PM 64.4 °F 50.0 °F 59% 29.95 in - SW 10.4 mph - N/A   Clear
9:00 PM 64.4 °F 50.0 °F 59% 29.95 in - SW 9.2 mph - N/A   Clear
9:30 PM 62.6 °F 51.8 °F 68% 29.95 in 6.2 mi SW 10.4 mph - N/A   Mostly Cloudy
10:00 PM 62.6 °F 51.8 °F 68% 29.95 in 6.2 mi SSW 10.4 mph - N/A   Mostly Cloudy
10:30 PM 60.8 °F 50.0 °F 68% 29.95 in 6.2 mi SW 11.5 mph - N/A   Mostly Cloudy
11:00 PM 60.8 °F 50.0 °F 68% 29.95 in 6.2 mi SW 9.2 mph - N/A   Scattered Clouds
11:30 PM 60.8 °F 50.0 °F 68% 29.95 in 6.2 mi WSW 10.4 mph - N/A   Scattered Clouds